Showing default

OV2-3, 13912

Orbit data source: Space-Track

OV2-3, 13912 is a payload satellite owned by USAF SSD (US) in HEO that was launched on Tue, 21 Dec 1965 UTC via a TITAN IIIC launch vehicle from the Air Force Eastern Test Range (AFETR). Payload-class satellites include a variety of spacecraft equipped with specific instruments for various scientific and technological missions. These include communications satellites like Starlink; space stations such as the ISS; scientific satellites like the Hubble; Earth observation satellites from companies like Planet Labs, Umbra, and HawkEye 360; GPS; miniature CubeSats for education and research; and military/defense satellites.

Loading next visibility...
Identifier
13912, 1965-108V
Orbit
HEO
Country
Flag of USUS
Related business
Manufacturer
Northrop
Mission
Spacecraft
Bus & Motor
OV2, Unknown motor
Mass
2,144 kg wet, 194 kg dry
Launch date (UTC)
1965-12-21 (61 years ago)
Launch vehicle
TITAN IIIC
Launch site
Air Force Eastern Test Range (AFETR)
Object type
Payload
Rocket body
Debris
Shape & HBR
BOX + 4 PAN, 1.1 m
Radar Cross Section
Large (>1 m²)

Expand to show TLE details & history
Last TLE update: 1 day ago

TLE from 1 day ago
0 OV2-3
1 13912U 65108V   26205.79625816  .00011639  00000-0  95749-3 0  9992
2 13912  26.6594  22.7660 5207210 251.0142  47.4310  5.32915763572717
Epoch: 2026-07-24T19:06Z
TLE epoch observation values (Epoch: 2026-07-24T19:06:36.705Z)
Latitude
-0.00017°
Longitude
153.60097°
Altitude
5,767.961 km
Speed
6.07 km/s
True Right ascension
01h 31m 05s
True Declination
0° 00' 01"
Sunlit
Object was in daylight at epoch
Visualization orbit readout
Latitude
Unknown
Longitude
Unknown
Altitude
Unknown
Speed
Unknown
Apparent Right ascension
Unknown
Apparent Declination
Unknown
Sunlit
N/A
Visualization observer readout
Local Sidereal Time
16:59:38
Azimuth
Unknown
Elevation
Unknown
Doppler factor
Unknown
Orbital elements
Apogee altitude
14,681.839 km
Perigee altitude
259.244 km
Semi-major axis
13,848.679 km
Eccentricity
0.52072
Inclination
26.6594°
RAAN
22.766°
Arg. of periapsis
251.0142°
True anomaly
109.0241°
Mean anomaly
47.431°
Eccentric anomaly
76.43369°
Mean motion
1.33177 °/min
Orbital period
270.32 mins
BSTAR
0.00095749

Documentation

Showing up to 5 results
|